Regional Weather Roundup
Issued by NWS Raleigh/Durham, NC

Home | Current Version | Previous Version | Text Only | Print | Product List | Glossary On
Versions: 1 2 3 4 5 6 7 8 9 10 11 12 13 14 15 16 17 18 19 20 21 22 23 24 25 26 27 28 29 30 31 32 33 34 35 36 37 38 39 40 41 42 43 44 45 46 47 48 49 50
000
ASUS42 KRAH 290410
RWRRAH
NORTH CAROLINA WEATHER ROUNDUP
NATIONAL WEATHER SERVICE RALEIGH NC
1200 AM EDT FRI MAY 29 2015

NOTE: "FAIR" INDICATES FEW OR NO CLOUDS BELOW 12,000 FEET WITH NO
SIGNIFICANT WEATHER AND/OR OBSTRUCTIONS TO VISIBILITY.

NCZ001-053-055-056-065-067-290500-
WESTERN NORTH CAROLINA

CITY           SKY/WX    TMP DP  RH WIND       PRES   REMARKS
ASHEVILLE      CLOUDY    66  62  87 CALM      30.29F
JEFFERSON      CLOUDY    63  63 100 W3        30.32F
MORGANTON      CLOUDY    66  66  98 CALM      30.29F
HICKORY        CLOUDY    67  65  93 NW3       30.23F
RUTHERFORDTON  CLOUDY    65  65 100 CALM      30.25F
MOUNT AIRY     MOCLDY    69  65  85 CALM      30.27F
BOONE          MOCLDY    59  59 100 CALM      30.33F FOG
$$

NCZ021-022-025-041-071-084-088-290500-
CENTRAL NORTH CAROLINA

CITY           SKY/WX    TMP DP  RH WIND       PRES   REMARKS
CHARLOTTE      CLOUDY    72  65  78 CALM      30.23F
GREENSBORO     MOCLDY    73  62  68 CALM      30.22S
WINSTON-SALEM  MOCLDY    73  63  70 W6        30.24S
RALEIGH-DURHAM MOCLDY    73  69  87 SW3       30.22S
FORT BRAGG     CLEAR     74  64  71 S3        30.21F
FAYETTEVILLE   CLEAR     72  64  76 S7        30.22S
BURLINGTON     CLEAR     68  65  90 CALM      30.21F
LAURINBURG     PTCLDY    72  62  71 S7        30.23S
$$

NCZ011-015-027-028-043-044-047-080-103-290500-
NORTHEASTERN NORTH CAROLINA

CITY           SKY/WX    TMP DP  RH WIND       PRES   REMARKS
ROCKY MT-WILSO CLEAR     73  65  75 S7        30.22S
GREENVILLE     CLEAR     72  64  78 S6        30.24S
WASHINGTON     CLEAR     70  62  76 S3        30.25S
ELIZABETH CITY CLEAR     71  63  75 S7        30.24S
MANTEO         CLEAR     70  62  76 S6        30.24F
CAPE HATTERAS  PTCLDY    73  62  68 SE6       30.24F
$$

NCZ078-087-090-091-093-098-101-290500-
SOUTHEASTERN NORTH CAROLINA

CITY           SKY/WX    TMP DP  RH WIND       PRES   REMARKS
LUMBERTON      CLEAR     70  63  78 S5        30.22S
GOLDSBORO      CLEAR     71  64  77 CALM      30.21S
KINSTON        PTCLDY    71  63  75 S5        30.25R
KENANSVILLE    CLEAR     67  61  81 CALM      30.25S
NEW BERN       CLEAR     64  59  83 CALM      30.26S
CHERRY POINT   CLEAR     65  61  87 CALM      30.25F
BEAUFORT       CLEAR     65  61  87 CALM      30.24S
JACKSONVILLE   CLEAR     67  63  87 S3        30.23S
WILMINGTON     PTCLDY    67  62  84 CALM      30.23S
$$



USA.gov is the U.S. government's official web portal to all federal, state and local government web resources and services.